Weather History for Leeming, United Kingdom

Change the Weather History Date:

Thursday, October 4, 2012

  Actual Average (EGNV) Record (EGNV)
Temperature  
Mean Temperature 46 °F -  
Max Temperature 57 °F 55 °F 68 °F (2013)
Min Temperature 35 °F 43 °F 35 °F (2008)
Degree Days  
Heating Degree Days 19    
Moisture  
Dew Point 42 °F    
Average Humidity 83    
Maximum Humidity 100    
Minimum Humidity 55    
Precipitation  
Precipitation 0.00 in 0.07 in - ()
Sea Level Pressure  
Sea Level Pressure 29.64 in    
Wind  
Wind Speed 5 mph ()    
Max Wind Speed 15 mph    
Max Gust Speed -    
Visibility 6.6 miles    
Events Fog    
Averages and records for this station are not official NWS values.
T = Trace of Precipitation, MM = Missing Value Source: Averaged Metar Reports

Daily Weather History Graph

Daily Weather History Graph

Search for Another Location

Airport:

Trip Planner

Search our weather history database for the weather conditions in past years. The results will help you decide how hot, cold, wet, or windy it might be!

Date:

Astronomy

Oct. 04, 2012 Rise Set
Actual Time 7:14 AM BST 6:34 PM BST
Civil Twilight 6:38 AM BST 7:09 PM BST
Nautical Twilight 5:57 AM BST 7:50 PM BST
Astronomical Twilight 5:15 AM BST 8:32 PM BST
Moon 8:15 PM BST (10/4) 12:01 PM BST (10/4)
Length of Visible Light 12h 30m
Length of Day
11h 19m
Waning Gibbous, 83% of the Moon is Illuminated
Oct 4
Waning Gibbous
Oct 8
Last Quarter
Oct 15
New
Oct 22
First Quarter
Oct 29
Full

Hourly Weather History & Observations

Time (BST) Temp. Windchill Dew Point Humidity Pressure Visibility Wind Dir Wind Speed Gust Speed Precip Events Conditions
12:50 AM 43 °F - 40 °F 85% 29.57 in 22 mi SW 6.9 mph - -   Partly Cloudy
12:50 AM 42.8 °F 38.6 °F 41.0 °F 93% 29.56 in - SW 6.9 mph - N/A   Clear
1:50 AM 41.0 °F - 39.2 °F 93% 29.56 in - SSE 2.3 mph - N/A   Clear
2:50 AM 41.0 °F - 39.2 °F 93% 29.56 in - SSW 1.2 mph - N/A   Clear
3:50 AM 37 °F - 36 °F 95% 29.59 in 9 mi Calm Calm - -   Scattered Clouds
3:50 AM 37.4 °F - 35.6 °F 93% 29.56 in - Calm Calm - N/A   Clear
4:50 AM 39.2 °F 37.0 °F 39.2 °F 100% 29.59 in - South 3.5 mph - N/A   Clear
5:50 AM 35.6 °F - 35.6 °F 100% 29.59 in 6.2 mi Calm Calm - N/A Fog Shallow Fog
6:50 AM 38 °F - 37 °F 96% 29.62 in 1 mi South 2.3 mph - - Fog Light Fog
6:50 AM 37.4 °F - 37.4 °F 100% 29.59 in 6.2 mi South 2.3 mph - N/A Fog Partly Cloudy
7:50 AM 35.6 °F 32.8 °F 35.6 °F 100% 29.62 in 6.2 mi South 3.5 mph - N/A Fog Shallow Fog
8:50 AM 42.8 °F 40.1 °F 41.0 °F 93% 29.62 in 6.2 mi SSE 4.6 mph - N/A   Partly Cloudy
9:50 AM 47 °F - 43 °F 79% 29.67 in 31 mi SSE 3.5 mph - -   Scattered Clouds
9:50 AM 46.4 °F 45.2 °F 42.8 °F 87% 29.65 in 6.2 mi SSE 3.5 mph - N/A   Partly Cloudy
10:50 AM 51.8 °F - 44.6 °F 76% 29.68 in 6.2 mi South 2.3 mph - N/A   Partly Cloudy
11:50 AM 55.4 °F - 42.8 °F 63% 29.68 in 6.2 mi West 8.1 mph - N/A   Partly Cloudy
12:50 PM 54 °F - 44 °F 59% 29.71 in 37 mi West 6.9 mph - -   Partly Cloudy
12:50 PM 53.6 °F - 44.6 °F 72% 29.71 in 6.2 mi West 6.9 mph - N/A   Scattered Clouds
1:50 PM 57.2 °F - 41.0 °F 55% 29.68 in 6.2 mi WSW 10.4 mph - N/A   Partly Cloudy
2:50 PM 55.4 °F - 42.8 °F 63% 29.71 in 6.2 mi SW 10.4 mph - N/A   Scattered Clouds
3:50 PM 53 °F - 43 °F 60% 29.71 in 28 mi SW 15.0 mph - -   Scattered Clouds
3:50 PM 53.6 °F - 42.8 °F 67% 29.71 in 6.2 mi SW 15.0 mph - N/A   Mostly Cloudy
4:50 PM 51.8 °F - 42.8 °F 71% 29.68 in 6.2 mi SW 13.8 mph - N/A   Scattered Clouds
5:50 PM 51.8 °F - 44.6 °F 76% 29.68 in 6.2 mi South 6.9 mph - N/A   Scattered Clouds
6:50 PM 50 °F - 44 °F 73% 29.71 in 14 mi SSW 6.9 mph - -   Mostly Cloudy
6:50 PM 50.0 °F - 44.6 °F 82% 29.68 in 6.2 mi SSW 6.9 mph - N/A   Mostly Cloudy
7:50 PM 50.0 °F - 44.6 °F 82% 29.68 in 6.2 mi East 5.8 mph - N/A   Scattered Clouds
8:50 PM 48.2 °F - 44.6 °F 87% 29.68 in 6.2 mi South 8.1 mph - N/A   Unknown
9:50 PM 48 °F - 45 °F 86% 29.67 in 10 mi SE 5.8 mph - -   Mostly Cloudy
9:50 PM 48.2 °F - 44.6 °F 87% 29.65 in 6.2 mi SE 5.8 mph - N/A   Scattered Clouds
10:50 PM 48.2 °F - 44.6 °F 87% 29.62 in 6.2 mi SSE 5.8 mph - N/A   Scattered Clouds
11:50 PM 48.2 °F - 44.6 °F 87% 29.62 in 6.2 mi SE 5.8 mph - N/A   Mostly Cloudy